This demonstration page uses our WeatherBlox Daily Observations layout. Learn more.

Left ArrowRight Arrow

38.20091, -84.87328

Hourly Observations for July 1, 2017

Temp ( °F °C ) Dew Point ( °F °C ) Humidity (%) Winds ( mph kmh ) Pressure ( in mb ) Visibility ( mi km ) Precip ( " mm )
12:08 am 00:08 Partly Cloudy with Light Rain 69 20.6 65 18.3 87 87 SSW 9 15 29.88 1012 10 16 0.01 0.25
12:53 am 00:53 Clear 69 20.6 65 18.3 87 87 SW 9 15 29.88 1012 10 16 0.01 0.25
1:53 am 01:53 Clear 69 20.6 65 18.3 87 87 SSW 9 15 29.90 1013 10 16 0.00 0.00
2:53 am 02:53 Clear 69 20.6 65 18.3 87 87 SSW 8 13 29.90 1013 10 16 0.00 0.00
3:53 am 03:53 Clear 68 20 65 18.3 90 90 WSW 8 13 29.90 1012 10 16 0.00 0.00
4:41 am 04:41 Mostly Clear 69 20.6 66 18.9 90 90 SW 6 9 29.88 1012 10 16 0.00 0.00
4:53 am 04:53 Mostly Cloudy 69 20.6 66 18.9 90 90 WSW 6 9 29.90 1012 9 14 0.00 0.00
5:15 am 05:15 Cloudy 70 21.1 67 19.4 90 90 WSW 6 9 29.91 1013 9 14 0.00 0.00
5:53 am 05:53 Cloudy 70 21.1 67 19.4 90 90 W 7 11 29.92 1013 8 13 0.00 0.00
6:53 am 06:53 Cloudy with Mist and Fog 70 21.1 67 19.4 90 90 WNW 5 7 29.94 1014 5 8 0.00 0.00
7:06 am 07:06 Cloudy with Mist and Fog 70 21.1 67 19.4 90 90 W 5 7 29.94 1014 5 8 0.00 0.00
7:53 am 07:53 Cloudy with Mist and Fog 71 21.7 67 19.4 87 87 W 3 6 29.96 1015 6 10 0.00 0.00
8:53 am 08:53 Cloudy 73 22.8 68 20 84 84 SSW 7 11 29.97 1015 7 11 0.00 0.00
9:44 am 09:44 Partly Cloudy 75 23.9 68 20 79 79 SSW 8 13 29.97 1015 10 16 0.00 0.00
9:53 am 09:53 Partly Cloudy 75 23.9 68 20 79 79 SW 8 13 29.98 1015 10 16 0.00 0.00
10:21 am 10:21 Mostly Cloudy 76 24.4 68 20 77 77 WSW 7 11 30.00 1016 10 16 0.00 0.00
10:41 am 10:41 Mostly Cloudy 75 23.9 68 20 79 79 SW 7 11 30.00 1016 10 16 0.00 0.00
10:53 am 10:53 Partly Cloudy 76 24.4 69 20.6 79 79 SW 8 13 29.99 1016 10 16 0.00 0.00
11:53 am 11:53 Partly Cloudy 80 26.7 69 20.6 69 69 W 6 9 30.00 1016 10 16 0.00 0.00
12:53 pm 12:53 Mostly Sunny 80 26.7 69 20.6 69 69 WSW 6 9 30.01 1016 10 16 0.00 0.00
1:53 pm 13:53 Mostly Cloudy 82 27.8 69 20.6 65 65 SW 8 13 30.00 1016 10 16 0.00 0.00
2:53 pm 14:53 Partly Cloudy 83 28.3 70 21.1 65 65 W 6 9 30.00 1016 10 16 0.00 0.00
3:53 pm 15:53 Partly Cloudy 84 28.9 67 19.4 57 57 W 8 13 29.98 1015 10 16 0.00 0.00
4:53 pm 16:53 Mostly Cloudy 83 28.3 67 19.4 59 59 SW 8 13 29.96 1015 10 16 0.00 0.00
5:53 pm 17:53 Partly Cloudy 83 28.3 68 20 61 61 SW 8 13 29.96 1015 10 16 0.00 0.00
6:53 pm 18:53 Mostly Cloudy 82 27.8 68 20 63 63 SW 7 11 29.96 1015 10 16 0.00 0.00
7:21 pm 19:21 Mostly Cloudy with Nearby Thunderstorms 80 26.7 69 20.6 69 69 SW 12 19 29.97 1015 10 16 0.00 0.00
7:36 pm 19:36 Partly Cloudy 79 26.1 65 18.3 62 62 SW 13 20 29.97 1015 10 16 0.00 0.00
7:53 pm 19:53 Sunny 76 24.4 66 18.9 72 72 SSW 6 9 29.98 1015 10 16 0.00 0.00
8:53 pm 20:53 Mostly Sunny 75 23.9 67 19.4 76 76 SSW 5 7 30.00 1016 10 16 0.00 0.00
9:53 pm 21:53 Cloudy 74 23.3 67 19.4 79 79 W 6 9 30.01 1016 10 16 0.00 0.00
10:02 pm 22:02 Cloudy with Heavy Rain 74 23.3 68 20 82 82 WNW 13 20 30.00 1016 2 2 0.19 4.83
10:12 pm 22:12 Cloudy with Thunderstorms 73 22.8 68 20 84 84 WNW 6 9 30.00 1016 2 3 0.29 7.37
10:15 pm 22:15 Cloudy with Thunderstorms 74 23.3 68 20 82 82 WNW 3 6 30.03 1017 3 5 0.29 7.37
10:26 pm 22:26 Cloudy with Nearby Thunderstorms 73 22.8 68 20 84 84 WNW 7 11 30.03 1017 5 8 0.33 8.38
10:36 pm 22:36 Cloudy with Nearby Thunderstorms 73 22.8 69 20.6 87 87 SW 3 6 30.03 1017 7 11 0.34 8.64
10:53 pm 22:53 Partly Cloudy 73 22.8 69 20.6 87 87 N 3 6 30.04 1017 10 16 0.34 8.64
11:53 pm 23:53 Clear 72 22.2 68 20 87 87 Calm 30.04 1017 7 11 0.00 0.00

Powered by AerisWeather